Hourly Weather Murafa

Today, 27 September, Monday

Time Temperature Precipitation Wind Pressure Humidity
00:00 +10°C° 0 mm 2 mps 744 mmHg 74%
01:00 +10°C° 0 mm 2 mps 744 mmHg 76%
02:00 +9°C° 0 mm 2 mps 744 mmHg 79%
03:00 +9°C° 0 mm 2 mps 744 mmHg 82%
04:00 +8°C° 0 mm 2 mps 744 mmHg 84%
05:00 +8°C° 0 mm 2 mps 744 mmHg 87%
06:00 +9°C° 0 mm 2 mps 744 mmHg 82%
07:00 +10°C° 0 mm 2 mps 745 mmHg 77%
08:00 +11°C° 0 mm 3 mps 745 mmHg 73%
09:00 +12°C° 0 mm 3 mps 745 mmHg 65%
10:00 +14°C° 0 mm 3 mps 745 mmHg 57%
11:00 +16°C° 0 mm 3 mps 745 mmHg 49%
12:00 +17°C° 0 mm 3 mps 745 mmHg 46%
13:00 +18°C° 0 mm 3 mps 744 mmHg 43%
14:00 +18°C° 0 mm 3 mps 744 mmHg 40%
15:00 +18°C° 0 mm 3 mps 744 mmHg 42%
16:00 +17°C° 0 mm 3 mps 744 mmHg 45%
17:00 +16°C° 0 mm 3 mps 744 mmHg 47%
18:00 +14°C° 0 mm 3 mps 744 mmHg 53%
19:00 +12°C° 0 mm 3 mps 744 mmHg 59%
20:00 +10°C° 0 mm 3 mps 744 mmHg 66%
21:00 +9°C° 0 mm 3 mps 745 mmHg 69%
22:00 +9°C° 0 mm 3 mps 745 mmHg 72%
23:00 +8°C° 0 mm 3 mps 745 mmHg 75%

Tomorrow, 28 September, Tuesday

Time Temperature Precipitation Wind Pressure Humidity
00:00 +8°C° 0 mm 3 mps 745 mmHg 77%
01:00 +7°C° 0 mm 3 mps 745 mmHg 79%
02:00 +7°C° 0 mm 3 mps 745 mmHg 81%
03:00 +7°C° 0 mm 3 mps 745 mmHg 83%
04:00 +5°C° 0 mm 3 mps 745 mmHg 85%
05:00 +5°C° 0 mm 3 mps 745 mmHg 87%
06:00 +7°C° 0 mm 3 mps 745 mmHg 81%
07:00 +8°C° 0 mm 3 mps 745 mmHg 76%
08:00 +9°C° 0 mm 3 mps 745 mmHg 70%
09:00 +11°C° 0 mm 3 mps 746 mmHg 63%
10:00 +13°C° 0 mm 3 mps 746 mmHg 55%
11:00 +16°C° 0 mm 3 mps 746 mmHg 48%
12:00 +16°C° 0 mm 3 mps 746 mmHg 45%
13:00 +17°C° 0 mm 3 mps 746 mmHg 43%
14:00 +18°C° 0 mm 3 mps 745 mmHg 40%
15:00 +17°C° 0 mm 3 mps 746 mmHg 42%
16:00 +16°C° 0 mm 3 mps 746 mmHg 44%
17:00 +15°C° 0 mm 4 mps 746 mmHg 46%
18:00 +13°C° 0 mm 3 mps 746 mmHg 50%
19:00 +12°C° 0 mm 3 mps 747 mmHg 53%
20:00 +11°C° 0 mm 3 mps 747 mmHg 57%
21:00 +10°C° 0 mm 3 mps 747 mmHg 58%
22:00 +10°C° 0 mm 3 mps 747 mmHg 60%
23:00 +9°C° 0 mm 3 mps 748 mmHg 61%

Day after tomorrow, 29 September, Wednesday

Time Temperature Precipitation Wind Pressure Humidity
00:00 +9°C° 0 mm 3 mps 748 mmHg 63%
01:00 +9°C° 0 mm 2 mps 748 mmHg 65%
02:00 +9°C° 0 mm 2 mps 748 mmHg 67%
03:00 +8°C° 0 mm 2 mps 748 mmHg 68%
04:00 +8°C° 0 mm 2 mps 748 mmHg 70%
05:00 +8°C° 0 mm 2 mps 748 mmHg 72%
06:00 +9°C° 0 mm 3 mps 748 mmHg 71%
07:00 +10°C° 0 mm 3 mps 749 mmHg 71%
08:00 +11°C° 0 mm 4 mps 749 mmHg 71%
09:00 +11°C° 0 mm 4 mps 749 mmHg 67%
10:00 +12°C° 0 mm 4 mps 749 mmHg 63%
11:00 +12°C° 0 mm 4 mps 750 mmHg 59%
12:00 +13°C° 0 mm 4 mps 749 mmHg 54%
13:00 +14°C° 0 mm 4 mps 749 mmHg 49%
14:00 +15°C° 0 mm 4 mps 749 mmHg 44%
15:00 +14°C° 0 mm 4 mps 749 mmHg 44%
16:00 +14°C° 0 mm 4 mps 749 mmHg 45%
17:00 +13°C° 0 mm 4 mps 749 mmHg 46%
18:00 +13°C° 0 mm 4 mps 749 mmHg 49%
19:00 +12°C° 0 mm 4 mps 749 mmHg 52%
20:00 +11°C° 0 mm 4 mps 750 mmHg 55%
21:00 +10°C° 0 mm 4 mps 750 mmHg 58%
22:00 +10°C° 0 mm 3 mps 750 mmHg 61%
23:00 +9°C° 0 mm 3 mps 750 mmHg 64%

30 September, Thursday

Time Temperature Precipitation Wind Pressure Humidity
00:00 +9°C° 0 mm 3 mps 750 mmHg 65%
01:00 +9°C° 0 mm 3 mps 750 mmHg 65%
02:00 +9°C° 0 mm 3 mps 750 mmHg 65%
03:00 +8°C° 0 mm 3 mps 750 mmHg 66%
04:00 +8°C° 0 mm 3 mps 750 mmHg 66%
05:00 +8°C° 0 mm 3 mps 750 mmHg 66%
06:00 +8°C° 0 mm 4 mps 750 mmHg 62%
07:00 +9°C° 0 mm 5 mps 750 mmHg 58%
08:00 +10°C° 0 mm 6 mps 750 mmHg 54%
09:00 +11°C° 0 mm 6 mps 750 mmHg 50%
10:00 +14°C° 0 mm 5 mps 751 mmHg 45%
11:00 +15°C° 0 mm 5 mps 751 mmHg 41%
12:00 +15°C° 0 mm 5 mps 750 mmHg 39%
13:00 +16°C° 0 mm 5 mps 750 mmHg 38%
14:00 +17°C° 0 mm 4 mps 750 mmHg 36%
15:00 +17°C° 0 mm 4 mps 750 mmHg 38%
16:00 +15°C° 0 mm 4 mps 750 mmHg 39%
17:00 +16°C° 0 mm 3 mps 750 mmHg 41%
18:00 +13°C° 0 mm 3 mps 750 mmHg 42%
19:00 +11°C° 0 mm 3 mps 750 mmHg 44%
20:00 +10°C° 0 mm 3 mps 750 mmHg 46%
21:00 +9°C° 0 mm 3 mps 751 mmHg 47%
22:00 +9°C° 0 mm 3 mps 751 mmHg 47%
23:00 +8°C° 0 mm 3 mps 751 mmHg 47%

1 October, Friday

Time Temperature Precipitation Wind Pressure Humidity
00:00 +8°C° 0 mm 3 mps 751 mmHg 48%
01:00 +7°C° 0 mm 3 mps 751 mmHg 49%
02:00 +7°C° 0 mm 3 mps 751 mmHg 50%
03:00 +5°C° 0 mm 3 mps 751 mmHg 52%
04:00 +5°C° 0 mm 3 mps 751 mmHg 53%
05:00 +5°C° 0 mm 3 mps 751 mmHg 55%
06:00 +7°C° 0 mm 3 mps 751 mmHg 52%
07:00 +8°C° 0 mm 3 mps 752 mmHg 49%
08:00 +9°C° 0 mm 3 mps 752 mmHg 46%
09:00 +11°C° 0 mm 4 mps 752 mmHg 41%
10:00 +13°C° 0 mm 4 mps 752 mmHg 36%
11:00 +14°C° 0 mm 4 mps 751 mmHg 31%
12:00 +15°C° 0 mm 4 mps 751 mmHg 30%
13:00 +17°C° 0 mm 4 mps 751 mmHg 28%
14:00 +17°C° 0 mm 4 mps 751 mmHg 27%
15:00 +17°C° 0 mm 4 mps 750 mmHg 29%
16:00 +16°C° 0 mm 3 mps 750 mmHg 31%
17:00 +14°C° 0 mm 3 mps 750 mmHg 33%
18:00 +13°C° 0 mm 3 mps 750 mmHg 36%
19:00 +11°C° 0 mm 3 mps 750 mmHg 38%
20:00 +10°C° 0 mm 3 mps 750 mmHg 40%
21:00 +9°C° 0 mm 3 mps 750 mmHg 41%
22:00 +9°C° 0 mm 3 mps 750 mmHg 43%
23:00 +8°C° 0 mm 3 mps 750 mmHg 44%

2 October, Saturday

Time Temperature Precipitation Wind Pressure Humidity
00:00 +8°C° 0 mm 3 mps 750 mmHg 45%
01:00 +7°C° 0 mm 3 mps 750 mmHg 46%
02:00 +7°C° 0 mm 3 mps 750 mmHg 48%
03:00 +5°C° 0 mm 3 mps 750 mmHg 49%
04:00 +5°C° 0 mm 3 mps 750 mmHg 50%
05:00 +4°C° 0 mm 3 mps 750 mmHg 51%
06:00 +5°C° 0 mm 4 mps 750 mmHg 48%
07:00 +7°C° 0 mm 4 mps 750 mmHg 45%
08:00 +8°C° 0 mm 4 mps 750 mmHg 42%
09:00 +10°C° 0 mm 5 mps 749 mmHg 37%
10:00 +13°C° 0 mm 5 mps 749 mmHg 32%
11:00 +14°C° 0 mm 6 mps 749 mmHg 27%
12:00 +15°C° 0 mm 6 mps 749 mmHg 25%
13:00 +16°C° 0 mm 5 mps 748 mmHg 24%
14:00 +17°C° 0 mm 5 mps 748 mmHg 22%
15:00 +16°C° 0 mm 5 mps 748 mmHg 23%
16:00 +15°C° 0 mm 4 mps 747 mmHg 25%
17:00 +14°C° 0 mm 4 mps 747 mmHg 26%
18:00 +13°C° 0 mm 4 mps 747 mmHg 29%
19:00 +11°C° 0 mm 4 mps 747 mmHg 31%
20:00 +9°C° 0 mm 3 mps 748 mmHg 34%
21:00 +9°C° 0 mm 3 mps 747 mmHg 36%
22:00 +8°C° 0 mm 3 mps 747 mmHg 38%
23:00 +8°C° 0 mm 3 mps 747 mmHg 41%
Show more

We Need Your Consent

Meteoprog and our Service Providers may store and access personal data such as cookies, device identifiers or other similar technologies on your device and process such data to personalise content and ads, as well as provide social media features and to analyse the traffic.

  • Store and/or access information on your device

    Cookies, device identifiers or other information can be stored or accessed on your device for the purposes indicated above.

  • Personalised ads and content, ad and content measurement, audience insights, and products development

    Ads and content can be personalised based on a profile. More data can be added to better personalise ads and content. Ad and content performance can be measured. Insights about the audience who saw the ads and content can be derived. Such data can be used to develop or improve user’s experience, systems and software.

By clicking ‘I Agree’ you will allow the use of indicated cookies, device identifiers, web beacons or other similar technologies. Your settings can be changed in the browser on your device.

For certain purposes, legitimate interests may be relied on, rather than consent. You can read more about this in our Privacy and Cookie Policy.